Location: Chircca
(13.7944°S, 72.0608°W)
Time: 06:18:40
(UTC+00:00)

CCE 1 Rocket - Pass Details

Date: 14 July 2020
Orbit: 544 x 3982 km, 28.9° (Epoch: 14 August)

Event Time Altitude Azimuth Distance (km) Brightness Sun altitude
Exits shadow 10:41:35 - 281° (WNW) 3,927 7.1 -7.9°
Reaches altitude 10° 10:44:16 10° 276° (W) 2,890 6.4 -7.3°
Maximum altitude 10:50:12 39° 207° (SSW) 1,079 4.5 -5.9°
Drops below altitude 10° 10:54:10 10° 136° (SE) 1,924 6.4 -5.0°
Sets 10:56:14 0° 127° (SE) 2,734 7.4 -4.6°
